EW3675 Weather Reports


time (UTC)temp
F
wind
direction
speed
knots
gust
knots
rain 1hr
in
rain 24hr
in
rain mn
in
humidity
%
barometer
mb
20220525123434 59 278 5.2 11.3 0.00 1.14 0.26 96 1009.3
20220525122934 59 281 5.2 11.3 0.00 1.14 0.26 96 1009.1
20220525122431 59 257 5.2 11.3 0.00 1.14 0.26 96 1009.1
20220525121930 60 271 5.2 13.0 0.00 1.14 0.26 96 1008.9
20220525121431 60 315 5.2 13.0 0.00 1.14 0.26 96 1008.7
20220525120931 60 275 5.2 13.0 0.00 1.14 0.26 96 1008.5
20220525120430 60 296 5.2 13.0 0.00 1.14 0.26 96 1008.3
20220525115923 60 311 6.1 12.2 0.00 1.14 0.26 96 1008.2
20220525115424 60 273 6.1 12.2 0.00 1.14 0.26 96 1008.2
20220525114924 61 271 6.1 12.2 0.00 1.14 0.26 96 1008.1
20220525114423 61 267 5.2 10.4 0.00 1.14 0.26 96 1007.9
20220525113922 61 271 3.5 9.6 0.00 1.14 0.26 96 1008.0
20220525113425 61 281 4.3 8.7 0.00 1.14 0.26 96 1007.9
20220525112922 61 317 4.3 8.7 0.00 1.14 0.26 96 1008.0
20220525112417 61 283 2.6 7.0 0.00 1.14 0.26 96 1007.9
20220525111916 60 298 2.6 7.0 0.00 1.14 0.26 96 1007.9
20220525111418 60 304 1.7 6.1 0.00 1.14 0.26 96 1007.9
20220525110918 60 276 1.7 3.5 0.00 1.14 0.26 96 1007.8
20220525110418 60 278 1.7 3.5 0.00 1.14 0.26 96 1007.9
20220525105918 60 302 2.6 6.1 0.00 1.14 0.26 96 1007.7
20220525105415 60 298 2.6 6.1 0.00 1.14 0.26 96 1007.7
20220525104914 60 295 2.6 6.1 0.00 1.14 0.26 96 1007.9
20220525104414 60 288 2.6 6.1 0.00 1.14 0.26 96 1007.8
20220525103916 60 285 1.7 3.5 0.00 1.14 0.26 96 1007.9
20220525103413 60 302 1.7 4.3 0.00 1.14 0.26 96 1008.0
20220525102910 60 288 1.7 4.3 0.00 1.14 0.26 96 1008.1
20220525102408 60 254 1.7 4.3 0.00 1.14 0.26 96 1008.1
20220525101909 60 241 1.7 4.3 0.00 1.14 0.26 96 1008.2
20220525101403 60 211 0.9 2.6 0.00 1.14 0.26 96 1008.2
20220525100903 61 209 1.7 2.6 0.00 1.14 0.26 96 1008.2
20220525100404 61 202 1.7 2.6 0.00 1.14 0.26 96 1008.2
20220525095903 61 233 1.7 2.6 0.00 1.14 0.26 96 1008.1
20220525095403 61 227 1.7 3.5 0.00 1.14 0.26 96 1008.0
20220525094904 61 226 1.7 3.5 0.00 1.14 0.26 96 1007.9
20220525094401 61 232 1.7 6.1 0.00 1.14 0.26 96 1007.9
20220525093858 61 209 2.6 6.1 0.00 1.14 0.26 96 1007.8
20220525093359 61 178 2.6 6.1 0.00 1.14 0.26 96 1007.7
20220525092857 61 235 4.3 11.3 0.00 1.14 0.26 96 1007.3
20220525092357 61 267 5.2 11.3 0.00 1.14 0.26 96 1007.5
20220525091855 61 274 5.2 14.8 0.00 1.14 0.26 96 1007.5
20220525091356 61 337 7.0 14.8 0.00 1.14 0.26 96 1007.0
20220525090853 61 273 7.0 14.8 0.00 1.14 0.26 96 1007.1
20220525090355 60 295 5.2 14.8 0.00 1.14 0.26 96 1006.8
20220525085855 60 190 3.5 7.0 0.00 1.14 0.26 96 1005.1
20220525085354 60 188 3.5 7.8 0.00 1.14 0.26 96 1005.0
20220525084851 60 172 2.6 7.8 0.00 1.14 0.26 96 1004.9
20220525084354 60 118 3.5 7.8 0.00 1.14 0.26 96 1004.5
20220525083852 60 114 4.3 10.4 0.00 1.14 0.26 96 1004.3
20220525083352 60 86 5.2 11.3 0.00 1.14 0.26 96 1004.2
20220525082845 60 98 6.1 11.3 0.00 1.14 0.26 96 1003.9
20220525082343 60 74 7.0 13.0 0.00 1.14 0.26 96 1003.9
20220525081841 60 89 7.0 13.0 0.01 1.14 0.26 96 1003.3
20220525081341 61 74 6.1 12.2 0.01 1.14 0.26 95 1004.1
20220525080843 61 70 6.1 12.2 0.01 1.14 0.26 95 1005.3
20220525080341 61 76 5.2 12.2 0.01 1.14 0.26 95 1005.2
20220525075839 61 84 3.5 7.8 0.02 1.14 0.26 95 1006.4
20220525075341 61 137 2.6 7.8 0.03 1.14 0.26 95 1007.2
20220525074839 61 102 2.6 7.8 0.05 1.14 0.26 95 1007.5
20220525074338 61 132 3.5 7.0 0.07 1.14 0.26 95 1007.5
20220525073836 61 134 3.5 7.0 0.08 1.14 0.26 95 1007.5
20220525073336 61 146 4.3 9.6 0.10 1.14 0.26 95 1007.5
20220525072833 61 133 4.3 9.6 0.12 1.14 0.26 95 1007.2
20220525072334 61 79 5.2 11.3 0.13 1.14 0.26 95 1007.2
20220525071834 61 55 5.2 11.3 0.13 1.13 0.25 95 1007.2
20220525071335 61 54 6.1 15.6 0.13 1.13 0.25 95 1007.5
20220525070832 61 70 8.7 15.6 0.14 1.13 0.25 95 1007.7
20220525070332 61 73 8.7 15.6 0.15 1.13 0.25 95 1007.7
20220525065826 62 42 7.8 15.6 0.14 1.12 0.24 95 1008.0
20220525065323 62 53 6.1 10.4 0.13 1.11 0.23 95 1008.3
20220525064823 62 71 4.3 8.7 0.11 1.09 0.21 95 1009.3
20220525064324 62 54 2.6 6.1 0.10 1.07 0.19 95 1009.9
20220525063823 62 65 0.9 2.6 0.09 1.06 0.18 95 1010.7
20220525063323 62 157 0.9 3.5 0.08 1.04 0.16 95 1011.4
20220525062823 62 157 0.9 3.5 0.06 1.02 0.15 95 1011.4
20220525062325 62 157 1.7 7.0 0.07 1.01 0.14 95 1011.4
20220525061824 62 157 1.7 7.0 0.08 1.00 0.13 95 1011.1
20220525061320 62 186 1.7 7.0 0.09 1.00 0.12 94 1011.0
20220525060821 62 40 2.6 7.0 0.09 0.99 0.11 94 1010.2
20220525060319 62 17 3.5 10.4 0.09 0.98 0.11 94 1009.5
20220525055819 62 304 4.3 10.4 0.10 0.98 0.10 94 1009.2
20220525055321 62 341 5.2 10.4 0.11 0.98 0.10 94 1008.9
20220525054821 62 308 4.3 10.4 0.13 0.98 0.10 94 1008.9
20220525054323 62 355 4.3 13.0 0.15 0.97 0.09 94 1008.8
20220525053821 62 19 5.2 13.0 0.17 0.97 0.09 94 1008.7
20220525053321 62 350 7.0 17.4 0.19 0.96 0.08 94 1008.5
20220525052818 62 5 7.8 17.4 0.23 0.96 0.08 94 1008.6
20220525052316 62 0 8.7 17.4 0.29 0.94 0.06 94 1008.3
20220525051817 62 340 9.6 19.1 0.37 0.92 0.04 94 1008.5
20220525051316 62 325 10.4 21.7 0.59 0.91 0.03 94 1008.2
20220525050817 62 318 10.4 21.7 0.81 0.90 0.02 94 1007.9
20220525050315 62 312 11.3 21.7 0.89 0.89 0.02 93 1007.5
20220525045815 62 351 13.0 23.5 0.88 0.88 0.88 93 1007.0
20220525045318 62 317 11.3 23.5 0.87 0.87 0.87 93 1006.8
20220525044818 61 48 10.4 20.9 0.85 0.85 0.86 93 1007.1
20220525044311 61 327 10.4 21.7 0.82 0.82 0.82 93 1007.3
20220525043811 61 355 9.6 21.7 0.80 0.80 0.80 92 1007.3
20220525043312 61 355 9.6 21.7 0.77 0.77 0.78 91 1007.9
20220525042814 61 23 10.4 31.3 0.73 0.73 0.73 90 1006.3
20220525042311 61 344 12.2 31.3 0.65 0.65 0.65 89 1006.3
20220525041812 62 325 15.6 31.3 0.55 0.55 0.57 86 1007.1
20220525041311 65 323 15.6 31.3 0.32 0.32 0.35 79 1006.5
20220525040810 72 329 12.2 26.9 0.09 0.09 0.12 69 1007.7
20220525040312 77 286 7.0 16.5 0.00 0.00 0.00 62 1007.5
20220525035810 78 323 6.1 10.4 0.00 0.00 0.00 69 1006.2
20220525035307 78 55 7.0 10.4 0.00 0.00 0.00 69 1004.6
20220525034807 78 49 5.2 9.6 0.00 0.00 0.00 69 1004.7
20220525034307 78 51 5.2 9.6 0.00 0.00 0.00 70 1004.6
20220525033807 78 51 5.2 9.6 0.00 0.00 0.00 69 1004.5
20220525033311 78 31 5.2 9.6 0.00 0.00 0.00 69 1004.2
20220525032808 78 70 4.3 9.6 0.00 0.00 0.00 69 1004.1
20220525032311 77 67 4.3 7.0 0.00 0.00 0.00 70 1003.9
20220525031808 77 52 2.6 7.0 0.00 0.00 0.00 70 1003.7
20220525031304 77 71 3.5 7.0 0.00 0.00 0.00 70 1003.8
20220525030806 77 99 3.5 7.0 0.00 0.00 0.00 70 1003.5
20220525030303 77 62 2.6 7.0 0.00 0.00 0.00 69 1003.3
20220525025802 78 71 2.6 7.0 0.00 0.00 0.00 69 1003.3
20220525025306 78 109 2.6 7.0 0.00 0.00 0.00 69 1003.1
20220525024803 78 101 2.6 7.0 0.00 0.00 0.00 68 1003.0
20220525024304 78 86 2.6 7.0 0.00 0.00 0.00 68 1003.0
20220525023802 78 78 2.6 7.8 0.00 0.00 0.00 68 1003.2
20220525023304 78 110 2.6 7.8 0.00 0.00 0.00 68 1003.2
20220525022803 78 111 2.6 5.2 0.00 0.00 0.00 67 1003.2
20220525022305 78 130 2.6 7.0 0.00 0.00 0.00 66 1003.3
20220525021803 78 125 2.6 7.0 0.00 0.00 0.00 66 1003.0
20220525021303 79 133 3.5 7.0 0.00 0.00 0.00 66 1002.9
20220525020804 79 128 2.6 7.0 0.00 0.00 0.00 65 1003.2
20220525020304 79 91 2.6 5.2 0.00 0.00 0.00 65 1003.1
20220525015804 79 91 1.7 5.2 0.00 0.00 0.00 65 1003.1
20220525015303 79 104 0.9 5.2 0.00 0.00 0.00 64 1003.3
20220525014803 79 103 0.9 7.0 0.00 0.00 0.00 64 1003.4
20220525014306 80 88 1.7 7.0 0.00 0.00 0.00 64 1003.5
20220525013803 80 84 2.6 7.8 0.00 0.00 0.00 63 1003.3
20220525013305 80 78 2.6 7.8 0.00 0.00 0.00 63 1003.1
20220525012807 80 96 2.6 7.8 0.00 0.00 0.00 63 1003.0
20220525012259 80 115 2.6 12.2 0.00 0.00 0.00 62 1003.0
20220525011801 80 109 2.6 12.2 0.00 0.00 0.00 62 1002.8
20220525011259 80 139 3.5 12.2 0.00 0.00 0.00 62 1002.6
20220525010801 80 119 3.5 12.2 0.00 0.00 0.00 61 1002.5
20220525010300 81 107 3.5 11.3 0.00 0.00 0.00 61 1002.3
20220525005758 81 141 5.2 11.3 0.00 0.00 0.00 61 1002.3
20220525005302 81 174 6.1 12.2 0.00 0.00 0.00 60 1002.1
20220525004801 81 143 6.1 12.2 0.00 0.00 0.00 60 1002.3
20220525004300 81 150 6.1 11.3 0.00 0.00 0.00 60 1002.5
20220525003758 82 165 6.1 14.8 0.00 0.00 0.00 59 1002.4
20220525003300 82 113 5.2 14.8 0.00 0.00 0.00 58 1002.3
20220525002759 82 131 5.2 14.8 0.00 0.00 0.00 58 1002.4
20220525002259 82 155 6.1 14.8 0.00 0.00 0.00 58 1002.2
20220525001758 82 141 6.1 13.9 0.00 0.00 0.00 58 1002.1
20220525001259 83 182 7.0 13.9 0.00 0.00 0.00 58 1002.1
20220525000756 83 155 6.1 13.9 0.00 0.00 0.00 57 1002.0
20220525000259 83 166 7.0 13.9 0.00 0.00 0.00 56 1001.7
20220524235756 83 155 7.8 12.2 0.00 0.00 0.00 56 1001.7
20220524235256 83 123 7.0 13.9 0.00 0.00 0.00 56 1001.8
20220524234759 83 153 7.0 13.9 0.00 0.00 0.00 56 1002.0
20220524234257 83 159 6.1 13.9 0.00 0.00 0.00 55 1001.9
20220524233757 83 107 6.1 13.9 0.00 0.00 0.00 54 1002.1
20220524233256 84 84 6.1 13.0 0.00 0.00 0.00 54 1002.3
20220524232757 84 169 6.1 12.2 0.00 0.00 0.00 54 1002.3
20220524232257 84 140 6.1 12.2 0.00 0.00 0.00 55 1002.4
20220524231753 83 113 6.1 11.3 0.00 0.00 0.00 55 1002.4
20220524231250 84 92 6.1 13.9 0.00 0.00 0.00 54 1002.5
20220524230752 84 115 6.1 13.9 0.00 0.00 0.00 55 1002.4
20220524230248 84 143 6.1 13.9 0.00 0.00 0.00 55 1002.3
20220524225749 85 142 6.1 13.9 0.00 0.00 0.00 54 1002.4
20220524225249 85 113 5.2 13.0 0.00 0.00 0.00 54 1002.5
20220524224750 85 150 5.2 12.2 0.00 0.00 0.00 54 1002.5
20220524224249 85 127 6.1 12.2 0.00 0.00 0.00 55 1002.5
20220524223748 85 107 6.1 11.3 0.00 0.00 0.00 55 1002.5
20220524223246 85 138 6.1 12.2 0.00 0.00 0.00 55 1002.6
20220524222742 85 71 5.2 12.2 0.00 0.00 0.00 55 1002.6
20220524222246 85 121 6.1 12.2 0.00 0.00 0.00 55 1002.7
20220524221742 85 80 7.0 13.0 0.00 0.00 0.00 55 1002.9
20220524221240 85 125 7.0 16.5 0.00 0.00 0.00 55 1003.1
20220524220740 85 149 7.0 16.5 0.00 0.00 0.00 54 1003.2
20220524220242 85 142 6.1 14.8 0.00 0.00 0.00 54 1003.5
20220524215740 86 161 5.2 14.8 0.00 0.00 0.00 53 1003.5
20220524215237 86 163 5.2 12.2 0.00 0.00 0.00 52 1003.6
20220524214740 85 184 4.3 12.2 0.00 0.00 0.00 53 1003.7
20220524214239 85 138 5.2 11.3 0.00 0.00 0.00 53 1003.8
20220524213737 85 141 5.2 11.3 0.00 0.00 0.00 55 1003.9
20220524213238 85 101 6.1 11.3 0.00 0.00 0.00 55 1004.2
20220524212736 85 122 5.2 11.3 0.00 0.00 0.00 54 1004.2
20220524212237 84 186 5.2 11.3 0.00 0.00 0.00 54 1004.3
20220524211733 85 155 6.1 14.8 0.00 0.00 0.00 54 1004.4
20220524211233 85 175 6.1 14.8 0.00 0.00 0.00 53 1004.5
20220524210730 85 183 6.1 14.8 0.00 0.00 0.00 54 1004.5
20220524210232 85 136 6.1 14.8 0.00 0.00 0.00 53 1004.6
20220524205732 85 150 5.2 12.2 0.00 0.00 0.00 54 1004.6
20220524205229 85 177 5.2 14.8 0.00 0.00 0.00 55 1004.7
20220524204728 85 170 6.1 14.8 0.00 0.00 0.00 56 1004.7
20220524204221 84 132 7.0 14.8 0.00 0.00 0.00 56 1004.7
20220524203722 84 175 7.0 14.8 0.00 0.00 0.00 56 1004.6
20220524203220 84 147 6.1 13.0 0.00 0.00 0.00 55 1004.7
20220524202720 84 151 7.0 13.0 0.00 0.00 0.00 54 1004.8
20220524202223 84 161 6.1 13.0 0.00 0.00 0.00 57 1005.0
20220524201720 84 182 6.1 15.6 0.00 0.00 0.00 56 1005.0
20220524201220 83 151 6.1 15.6 0.00 0.00 0.00 57 1005.1
20220524200723 83 188 7.0 14.8 0.00 0.00 0.00 58 1005.1
20220524200217 82 162 7.8 14.8 0.00 0.00 0.00 58 1005.2
20220524195716 82 182 7.8 14.8 0.00 0.00 0.00 58 1005.2
20220524195217 82 154 6.1 14.8 0.00 0.00 0.00 58 1005.3
20220524194718 82 164 7.0 13.9 0.00 0.00 0.00 58 1005.3
20220524194213 83 134 7.0 13.9 0.00 0.00 0.00 56 1005.3
20220524193714 83 94 5.2 13.0 0.00 0.00 0.00 56 1005.5
20220524193215 83 142 5.2 13.0 0.00 0.00 0.00 56 1005.5
20220524192717 84 148 6.1 13.0 0.00 0.00 0.00 55 1005.3
20220524192217 84 142 6.1 13.0 0.00 0.00 0.00 55 1005.3
20220524191713 84 155 6.1 12.2 0.00 0.00 0.00 55 1005.3
20220524191213 84 178 5.2 12.2 0.00 0.00 0.00 54 1005.4
20220524190709 84 129 5.2 13.9 0.00 0.00 0.00 55 1005.4
20220524190210 84 174 7.0 13.9 0.00 0.00 0.00 55 1005.4
20220524185709 84 148 7.0 13.9 0.00 0.00 0.00 56 1005.5
20220524185210 84 126 6.1 13.9 0.00 0.00 0.00 56 1005.5
20220524184711 84 151 6.1 12.2 0.00 0.00 0.00 55 1005.5
20220524184209 84 112 6.1 14.8 0.00 0.00 0.00 57 1005.6
20220524183709 84 152 6.1 14.8 0.00 0.00 0.00 56 1005.5
20220524183208 84 162 6.1 13.9 0.00 0.00 0.00 57 1005.6
20220524182709 84 117 7.0 13.9 0.00 0.00 0.00 56 1005.6
20220524182209 84 140 7.0 12.2 0.00 0.00 0.00 56 1005.6
20220524181710 84 113 7.0 15.6 0.00 0.00 0.00 57 1005.6
20220524181208 83 196 7.0 15.6 0.00 0.00 0.00 56 1005.7
20220524180708 83 202 7.8 15.6 0.00 0.00 0.00 56 1005.6
20220524180209 83 129 7.0 15.6 0.00 0.00 0.00 57 1005.7
20220524175709 83 125 7.0 13.9 0.00 0.00 0.00 56 1005.6
20220524175209 83 156 7.0 13.9 0.00 0.00 0.00 56 1005.8
20220524174710 82 98 7.8 16.5 0.00 0.00 0.00 57 1005.8
20220524174206 82 105 7.8 16.5 0.00 0.00 0.00 58 1005.8
20220524173700 82 107 7.8 16.5 0.00 0.00 0.00 56 1005.7
20220524173204 83 129 6.1 16.5 0.00 0.00 0.00 56 1005.5
20220524172700 83 85 5.2 13.0 0.00 0.00 0.00 57 1005.5
20220524172159 83 132 7.0 14.8 0.00 0.00 0.00 58 1005.5
20220524171704 82 136 7.8 14.8 0.00 0.00 0.00 58 1005.6
20220524171201 82 134 7.0 13.0 0.00 0.00 0.00 58 1005.8
20220524170701 83 128 5.2 12.2 0.00 0.00 0.00 57 1005.9
20220524170200 82 92 6.1 13.9 0.00 0.00 0.00 59 1005.9
20220524165704 82 126 7.0 13.9 0.00 0.00 0.00 58 1006.0
20220524165202 82 177 7.0 13.9 0.00 0.00 0.00 60 1006.0
20220524164702 82 173 7.0 13.9 0.00 0.00 0.00 60 1006.1
20220524164159 82 79 6.1 12.2 0.00 0.00 0.00 62 1006.1
20220524163659 81 142 5.2 13.9 0.00 0.00 0.00 63 1006.2
20220524163158 81 147 6.1 13.9 0.00 0.00 0.00 63 1006.2
20220524162658 81 133 6.1 12.2 0.00 0.00 0.00 63 1006.4
20220524162159 81 130 4.3 10.4 0.00 0.00 0.00 63 1006.5
20220524161657 81 154 4.3 10.4 0.00 0.00 0.00 63 1006.6
20220524161159 81 158 4.3 10.4 0.00 0.00 0.00 65 1006.6
20220524160654 80 145 5.2 12.2 0.00 0.00 0.00 66 1006.8
20220524160154 80 168 5.2 12.2 0.00 0.00 0.00 66 1006.9
20220524155655 80 163 5.2 9.6 0.00 0.00 0.00 67 1006.9
20220524155151 79 174 4.3 9.6 0.00 0.00 0.00 68 1006.9
20220524154653 79 203 3.5 9.6 0.00 0.00 0.00 70 1007.0
20220524154153 79 167 4.3 10.4 0.00 0.00 0.00 73 1007.0
20220524153652 78 161 5.2 10.4 0.00 0.00 0.00 74 1007.0
20220524153152 78 186 5.2 10.4 0.00 0.00 0.00 76 1006.9
20220524152653 78 161 5.2 11.3 0.00 0.00 0.00 77 1006.9
20220524152147 77 135 5.2 11.3 0.00 0.00 0.00 78 1007.0
20220524151650 76 175 5.2 10.4 0.00 0.00 0.00 81 1007.1
20220524151149 76 151 5.2 10.4 0.00 0.00 0.00 80 1007.1
20220524150650 76 146 5.2 10.4 0.00 0.00 0.00 83 1007.1
20220524150149 75 152 5.2 10.4 0.00 0.00 0.00 84 1007.1
20220524145655 75 115 4.3 10.4 0.00 0.00 0.00 86 1007.2
20220524145151 74 129 5.2 8.7 0.00 0.00 0.00 87 1007.3
20220524144649 74 135 5.2 8.7 0.00 0.00 0.00 88 1007.3
20220524144150 74 155 4.3 8.7 0.00 0.00 0.00 88 1007.5
20220524143645 74 181 3.5 7.8 0.00 0.00 0.00 90 1007.3
20220524143148 74 167 3.5 7.8 0.00 0.00 0.00 91 1007.5
20220524142647 73 178 3.5 7.8 0.00 0.00 0.00 92 1007.5
20220524142146 73 153 2.6 6.1 0.00 0.00 0.00 92 1007.5
20220524141644 73 142 2.6 6.1 0.00 0.00 0.00 93 1007.5
20220524141146 72 148 2.6 6.1 0.00 0.00 0.00 93 1007.5
20220524140651 72 148 2.6 7.0 0.00 0.00 0.00 93 1007.3
20220524140146 72 134 2.6 7.0 0.00 0.00 0.00 93 1007.3
20220524135648 72 138 2.6 7.0 0.00 0.00 0.00 93 1007.5
20220524135142 72 123 2.6 6.1 0.00 0.00 0.00 94 1007.6
20220524134641 71 139 2.6 6.1 0.00 0.00 0.00 94 1007.6
20220524134142 71 105 1.7 6.1 0.00 0.00 0.00 94 1007.7
20220524133643 71 86 1.7 7.0 0.00 0.00 0.00 94 1007.5
20220524133140 71 118 2.6 7.0 0.00 0.00 0.00 94 1007.5
20220524132641 71 94 2.6 7.0 0.00 0.00 0.00 94 1007.2
20220524132142 71 136 2.6 7.0 0.00 0.00 0.00 94 1007.1
20220524131642 71 124 2.6 7.0 0.00 0.00 0.00 94 1007.0
20220524131144 71 123 2.6 7.0 0.00 0.00 0.00 94 1006.8
20220524130641 71 115 3.5 7.0 0.00 0.00 0.00 94 1006.7
20220524130141 71 138 2.6 7.0 0.00 0.00 0.00 94 1006.5
20220524125641 71 136 1.7 6.1 0.00 0.00 0.00 94 1006.4
20220524125140 71 124 1.7 4.3 0.00 0.00 0.00 94 1006.4
20220524124641 71 136 1.7 4.3 0.00 0.00 0.00 94 1006.4
20220524124145 71 136 0.9 3.5 0.00 0.00 0.00 94 1006.4